Time,TemperatureF,DewpointF,PressureIn,WindDirection,WindDirectionDegrees,WindSpeedMPH,WindSpeedGustMPH,Humidity,HourlyPrecipIn,Conditions,Clouds,dailyrainin,SolarRadiationWatts/m^2,SoftwareType,DateUTC
2013-08-29 00:02:00,73.5,69.7,29.91,NE,34,5.0,6.0,88,0.01,,SCT055,0.00,0.00,VWS V14.01,2013-08-29 05:02:00,
2013-08-29 00:08:00,73.2,69.4,29.91,NE,46,2.0,4.0,88,0.01,,SCT055,0.00,0.00,VWS V14.01,2013-08-29 05:08:00,
2013-08-29 00:13:00,73.2,69.4,29.92,NE,46,1.0,5.0,88,0.01,,SCT055,0.00,0.00,VWS V14.01,2013-08-29 05:13:00,
2013-08-29 00:18:00,73.0,69.6,29.92,NE,46,2.0,4.0,89,0.01,,SCT055,0.00,0.00,VWS V14.01,2013-08-29 05:18:00,
2013-08-29 00:24:00,72.8,69.4,29.92,NE,46,2.0,4.0,89,0.01,,SCT055,0.00,0.00,VWS V14.01,2013-08-29 05:24:00,
2013-08-29 00:30:00,72.7,69.3,29.92,NE,52,2.0,4.0,89,0.01,,SCT055,0.00,0.00,VWS V14.01,2013-08-29 05:30:00,
2013-08-29 00:35:00,72.5,69.4,29.92,NE,47,1.0,4.0,90,0.01,,SCT055,0.00,0.00,VWS V14.01,2013-08-29 05:35:00,
2013-08-29 00:41:00,72.3,69.2,29.92,NE,49,4.0,5.0,90,0.01,,SCT055,0.00,0.00,VWS V14.01,2013-08-29 05:41:00,
2013-08-29 00:46:00,72.1,69.3,29.92,NE,55,0.0,4.0,91,0.01,,SCT055,0.00,0.00,VWS V14.01,2013-08-29 05:46:00,
2013-08-29 00:52:00,72.0,69.2,29.92,NE,37,2.0,6.0,91,0.01,,SCT055,0.00,0.00,VWS V14.01,2013-08-29 05:52:00,
2013-08-29 00:58:00,72.0,69.2,29.92,NE,48,1.0,3.0,91,0.01,,SCT055,0.00,0.00,VWS V14.01,2013-08-29 05:58:00,
2013-08-29 01:03:00,71.8,69.0,29.92,ENE,67,0.0,3.0,91,0.00,,,0.00,0.00,VWS V14.01,2013-08-29 06:03:00,
2013-08-29 01:08:00,71.8,69.0,29.92,NE,53,3.0,4.0,91,0.00,,,0.00,0.00,VWS V14.01,2013-08-29 06:08:00,
2013-08-29 01:13:00,71.6,69.2,29.92,NE,55,1.0,3.0,92,0.00,,,0.00,0.00,VWS V14.01,2013-08-29 06:13:00,
2013-08-29 01:19:00,71.5,69.1,29.92,ENE,57,6.0,7.0,92,0.00,,,0.00,0.00,VWS V14.01,2013-08-29 06:19:00,
2013-08-29 01:24:00,71.3,68.9,29.92,ENE,57,3.0,4.0,92,0.00,,,0.00,0.00,VWS V14.01,2013-08-29 06:24:00,
2013-08-29 01:29:00,71.3,68.9,29.92,ENE,57,0.0,3.0,92,0.00,,,0.00,0.00,VWS V14.01,2013-08-29 06:29:00,
2013-08-29 01:34:00,71.3,68.9,29.92,ENE,57,0.0,3.0,92,0.00,,,0.00,0.00,VWS V14.01,2013-08-29 06:34:00,
2013-08-29 01:39:00,71.3,68.9,29.92,ENE,57,1.0,3.0,92,0.00,,,0.00,0.00,VWS V14.01,2013-08-29 06:39:00,
2013-08-29 01:45:00,71.3,68.9,29.92,ENE,57,1.0,2.0,92,0.00,,,0.00,0.00,VWS V14.01,2013-08-29 06:45:00,
2013-08-29 01:50:00,71.1,68.7,29.92,ENE,57,3.0,4.0,92,0.00,,,0.00,0.00,VWS V14.01,2013-08-29 06:50:00,
2013-08-29 01:55:00,71.1,68.7,29.92,East,98,4.0,7.0,92,0.00,,,0.00,0.00,VWS V14.01,2013-08-29 06:55:00,
2013-08-29 02:01:00,70.9,68.5,29.92,East,94,4.0,6.0,92,0.00,,,0.00,0.00,VWS V14.01,2013-08-29 07:01:00,
2013-08-29 02:07:00,70.9,68.8,29.92,East,94,5.0,6.0,93,0.00,,,0.00,0.00,VWS V14.01,2013-08-29 07:07:00,
2013-08-29 02:12:00,70.8,68.7,29.92,East,89,1.0,4.0,93,0.00,,,0.00,0.00,VWS V14.01,2013-08-29 07:12:00,
2013-08-29 02:18:00,70.8,68.7,29.92,NE,46,3.0,7.0,93,0.00,,,0.00,0.00,VWS V14.01,2013-08-29 07:18:00,
2013-08-29 02:24:00,70.6,68.5,29.92,ENE,68,2.0,6.0,93,0.00,,,0.00,0.00,VWS V14.01,2013-08-29 07:24:00,
2013-08-29 02:30:00,70.6,68.5,29.93,ENE,68,0.0,4.0,93,0.00,,,0.00,0.00,VWS V14.01,2013-08-29 07:30:00,
2013-08-29 02:35:00,70.4,68.3,29.93,ENE,59,3.0,7.0,93,0.00,,,0.00,0.00,VWS V14.01,2013-08-29 07:35:00,
2013-08-29 02:40:00,70.3,68.2,29.93,ENE,59,2.0,4.0,93,0.00,,,0.00,0.00,VWS V14.01,2013-08-29 07:40:00,
2013-08-29 02:46:00,70.1,68.3,29.93,ENE,69,2.0,5.0,94,0.00,,,0.00,0.00,VWS V14.01,2013-08-29 07:46:00,
2013-08-29 02:51:00,70.1,68.3,29.93,ENE,65,5.0,6.0,94,0.00,,,0.00,0.00,VWS V14.01,2013-08-29 07:51:00,
2013-08-29 02:56:00,69.9,68.1,29.93,NNE,30,4.0,5.0,94,0.00,,,0.00,0.00,VWS V14.01,2013-08-29 07:56:00,
2013-08-29 03:01:00,69.9,68.1,29.93,ENE,76,2.0,5.0,94,0.00,,,0.00,0.00,VWS V14.01,2013-08-29 08:01:00,
2013-08-29 03:06:00,69.8,68.3,29.93,ENE,69,3.0,6.0,95,0.00,,,0.00,0.00,VWS V14.01,2013-08-29 08:06:00,
2013-08-29 03:11:00,69.8,67.4,29.93,ENE,68,1.0,6.0,92,0.00,,,0.00,0.00,VWS V14.01,2013-08-29 08:11:00,
2013-08-29 03:16:00,69.8,68.3,29.93,ENE,72,0.0,3.0,95,0.00,,,0.00,0.00,VWS V14.01,2013-08-29 08:16:00,
2013-08-29 03:21:00,69.8,68.3,29.93,ENE,76,1.0,3.0,95,0.00,,,0.00,0.00,VWS V14.01,2013-08-29 08:21:00,
2013-08-29 03:26:00,69.8,68.6,29.93,ENE,76,3.0,4.0,96,0.00,,,0.00,0.00,VWS V14.01,2013-08-29 08:26:00,
2013-08-29 03:31:00,69.8,68.6,29.93,ENE,78,0.0,0.0,96,0.00,,,0.00,0.00,VWS V14.01,2013-08-29 08:31:00,
2013-08-29 03:36:00,69.8,68.6,29.93,ENE,78,2.0,5.0,96,0.00,,,0.00,0.00,VWS V14.01,2013-08-29 08:36:00,
2013-08-29 03:41:00,69.8,68.6,29.93,East,87,0.0,2.0,96,0.00,,,0.00,0.00,VWS V14.01,2013-08-29 08:41:00,
2013-08-29 03:46:00,69.8,68.6,29.93,East,87,1.0,1.0,96,0.00,,,0.00,0.00,VWS V14.01,2013-08-29 08:46:00,
2013-08-29 03:51:00,69.9,68.7,29.93,East,87,2.0,3.0,96,0.00,,,0.00,0.00,VWS V14.01,2013-08-29 08:51:00,
2013-08-29 03:56:00,69.9,68.7,29.93,East,92,2.0,4.0,96,0.00,,,0.00,0.00,VWS V14.01,2013-08-29 08:56:00,
2013-08-29 04:01:00,69.9,68.7,29.93,East,92,5.0,5.0,96,0.00,,,0.00,0.00,VWS V14.01,2013-08-29 09:01:00,
2013-08-29 04:06:00,69.9,68.7,29.93,ESE,103,4.0,8.0,96,0.00,,,0.00,0.00,VWS V14.01,2013-08-29 09:06:00,
2013-08-29 04:11:00,69.9,68.7,29.93,ENE,66,4.0,4.0,96,0.00,,,0.00,0.00,VWS V14.01,2013-08-29 09:11:00,
2013-08-29 04:16:00,69.9,68.7,29.93,East,86,3.0,4.0,96,0.00,,,0.00,0.00,VWS V14.01,2013-08-29 09:16:00,
2013-08-29 04:21:00,69.9,69.0,29.92,NE,55,3.0,6.0,97,0.00,,,0.00,0.00,VWS V14.01,2013-08-29 09:21:00,
2013-08-29 04:26:00,69.9,69.0,29.92,ENE,76,4.0,4.0,97,0.00,,,0.00,0.00,VWS V14.01,2013-08-29 09:26:00,
2013-08-29 04:31:00,69.9,69.0,29.92,ENE,61,5.0,5.0,97,0.00,,,0.00,0.00,VWS V14.01,2013-08-29 09:31:00,
2013-08-29 04:36:00,69.9,69.0,29.93,ENE,67,2.0,3.0,97,0.00,,,0.00,0.00,VWS V14.01,2013-08-29 09:36:00,
2013-08-29 04:41:00,69.9,69.0,29.92,ENE,67,1.0,3.0,97,0.00,,,0.00,0.00,VWS V14.01,2013-08-29 09:41:00,
2013-08-29 04:46:00,69.9,69.0,29.93,ENE,64,2.0,5.0,97,0.00,,,0.00,0.00,VWS V14.01,2013-08-29 09:46:00,
2013-08-29 04:51:00,69.9,69.0,29.93,ENE,65,2.0,2.0,97,0.00,,,0.00,0.00,VWS V14.01,2013-08-29 09:51:00,
2013-08-29 04:56:00,70.1,69.2,29.93,ENE,65,2.0,4.0,97,0.00,,,0.00,0.00,VWS V14.01,2013-08-29 09:56:00,
2013-08-29 05:01:00,70.1,69.2,29.93,ENE,65,0.0,1.0,97,0.00,,,0.00,0.00,VWS V14.01,2013-08-29 10:01:00,
2013-08-29 05:06:00,70.1,69.2,29.93,ENE,65,1.0,3.0,97,0.00,,,0.00,0.00,VWS V14.01,2013-08-29 10:06:00,
2013-08-29 05:11:00,69.9,69.0,29.93,ENE,66,0.0,3.0,97,0.00,,,0.00,0.00,VWS V14.01,2013-08-29 10:11:00,
2013-08-29 05:17:00,69.9,69.0,29.93,ENE,69,1.0,3.0,97,0.00,,,0.00,0.00,VWS V14.01,2013-08-29 10:17:00,
2013-08-29 05:23:00,69.9,69.0,29.93,ENE,65,2.0,4.0,97,0.00,,,0.00,0.00,VWS V14.01,2013-08-29 10:23:00,
2013-08-29 05:29:00,69.9,69.0,29.93,East,82,2.0,4.0,97,0.00,,,0.00,0.00,VWS V14.01,2013-08-29 10:29:00,
2013-08-29 05:35:00,69.9,69.0,29.93,East,82,3.0,4.0,97,0.00,,,0.00,0.00,VWS V14.01,2013-08-29 10:35:00,
2013-08-29 05:40:00,69.9,69.0,29.93,East,82,3.0,3.0,97,0.00,,,0.00,0.00,VWS V14.01,2013-08-29 10:40:00,
2013-08-29 05:45:00,70.1,69.2,29.93,ENE,70,3.0,5.0,97,0.00,,,0.00,0.00,VWS V14.01,2013-08-29 10:45:00,
2013-08-29 05:50:00,70.1,69.2,29.93,ENE,76,1.0,4.0,97,0.00,,,0.00,0.00,VWS V14.01,2013-08-29 10:50:00,
2013-08-29 05:55:00,70.1,69.2,29.93,ENE,59,3.0,5.0,97,0.00,,,0.00,0.00,VWS V14.01,2013-08-29 10:55:00,
2013-08-29 06:00:00,70.1,69.2,29.93,ENE,59,0.0,0.0,97,0.00,,,0.00,0.00,VWS V14.01,2013-08-29 11:00:00,
2013-08-29 06:11:00,70.3,69.4,29.94,ENE,61,4.0,4.0,97,0.00,,,0.00,0.00,VWS V14.01,2013-08-29 11:11:00,
2013-08-29 06:16:00,70.3,69.4,29.94,ENE,63,1.0,3.0,97,0.00,,,0.00,0.00,VWS V14.01,2013-08-29 11:16:00,
2013-08-29 06:21:00,70.3,69.4,29.95,ENE,63,4.0,4.0,97,0.00,,,0.00,0.00,VWS V14.01,2013-08-29 11:21:00,
2013-08-29 06:26:00,70.3,69.7,29.95,ENE,63,2.0,3.0,98,0.00,,,0.00,0.00,VWS V14.01,2013-08-29 11:26:00,
2013-08-29 06:31:00,70.3,69.7,29.95,ENE,62,3.0,6.0,98,0.00,,,0.00,0.00,VWS V14.01,2013-08-29 11:31:00,
2013-08-29 06:37:00,70.3,69.7,29.95,ENE,65,0.0,4.0,98,0.00,,,0.00,5.00,VWS V14.01,2013-08-29 11:37:00,
2013-08-29 06:42:00,70.4,69.8,29.95,ENE,65,0.0,2.0,98,0.00,,,0.00,7.00,VWS V14.01,2013-08-29 11:42:00,
2013-08-29 06:47:00,70.4,69.8,29.95,ENE,66,3.0,3.0,98,0.00,,,0.00,9.00,VWS V14.01,2013-08-29 11:47:00,
2013-08-29 06:52:00,70.6,70.0,29.95,ENE,66,0.0,2.0,98,0.00,,,0.00,12.00,VWS V14.01,2013-08-29 11:52:00,
2013-08-29 06:57:00,70.6,70.0,29.96,ENE,67,4.0,4.0,98,0.00,,,0.00,14.00,VWS V14.01,2013-08-29 11:57:00,
2013-08-29 07:02:00,70.6,70.0,29.96,East,80,2.0,2.0,98,0.00,,,0.00,16.00,VWS V14.01,2013-08-29 12:02:00,
2013-08-29 07:07:00,70.6,70.0,29.96,East,80,1.0,3.0,98,0.00,,,0.00,18.00,VWS V14.01,2013-08-29 12:07:00,
2013-08-29 07:13:00,70.8,70.2,29.96,East,80,5.0,5.0,98,0.00,,,0.00,21.00,VWS V14.01,2013-08-29 12:13:00,
2013-08-29 07:18:00,70.6,70.0,29.96,ENE,73,0.0,1.0,98,0.00,,,0.00,25.00,VWS V14.01,2013-08-29 12:18:00,
2013-08-29 07:23:00,70.6,70.0,29.96,ENE,74,0.0,1.0,98,0.00,,,0.00,28.00,VWS V14.01,2013-08-29 12:23:00,
2013-08-29 07:28:00,70.6,70.0,29.96,ENE,74,3.0,4.0,98,0.00,,,0.00,33.00,VWS V14.01,2013-08-29 12:28:00,
2013-08-29 07:33:00,70.6,70.0,29.96,ENE,69,2.0,4.0,98,0.00,,,0.00,37.00,VWS V14.01,2013-08-29 12:33:00,
2013-08-29 07:38:00,70.6,70.0,29.96,ENE,69,0.0,2.0,98,0.00,,,0.00,37.00,VWS V14.01,2013-08-29 12:38:00,
2013-08-29 07:43:00,70.6,70.0,29.96,ENE,70,3.0,4.0,98,0.00,,,0.00,35.00,VWS V14.01,2013-08-29 12:43:00,
2013-08-29 07:48:00,70.6,70.0,29.97,ENE,70,2.0,2.0,98,0.00,,,0.00,39.00,VWS V14.01,2013-08-29 12:48:00,
2013-08-29 07:53:00,70.6,70.0,29.96,ENE,70,2.0,5.0,98,0.00,,,0.00,49.00,VWS V14.01,2013-08-29 12:53:00,
2013-08-29 07:58:00,70.6,70.0,29.96,ENE,69,2.0,4.0,98,0.00,,,0.00,56.00,VWS V14.01,2013-08-29 12:58:00,
2013-08-29 08:03:00,70.6,70.0,29.96,ENE,69,0.0,3.0,98,0.00,,,0.00,63.00,VWS V14.01,2013-08-29 13:03:00,
2013-08-29 08:08:00,70.6,70.0,29.96,NE,47,6.0,6.0,98,0.00,,,0.00,76.00,VWS V14.01,2013-08-29 13:08:00,
2013-08-29 08:13:00,70.4,69.8,29.96,ENE,57,3.0,4.0,98,0.00,,,0.00,77.00,VWS V14.01,2013-08-29 13:13:00,
2013-08-29 08:18:00,70.4,69.8,29.96,ENE,65,4.0,6.0,98,0.00,,,0.00,90.00,VWS V14.01,2013-08-29 13:18:00,
2013-08-29 08:23:00,70.4,69.8,29.96,ENE,66,2.0,4.0,98,0.00,,,0.00,90.00,VWS V14.01,2013-08-29 13:23:00,
2013-08-29 08:28:00,70.4,69.8,29.96,East,101,6.0,6.0,98,0.00,,,0.00,109.00,VWS V14.01,2013-08-29 13:28:00,
2013-08-29 08:33:00,70.4,69.8,29.96,East,101,2.0,4.0,98,0.00,,,0.00,95.00,VWS V14.01,2013-08-29 13:33:00,
2013-08-29 08:38:00,70.6,70.0,29.97,NE,47,1.0,3.0,98,0.00,,,0.00,97.00,VWS V14.01,2013-08-29 13:38:00,
2013-08-29 08:43:00,70.6,70.0,29.97,NE,45,0.0,5.0,98,0.00,,,0.00,97.00,VWS V14.01,2013-08-29 13:43:00,
2013-08-29 08:48:00,70.8,70.2,29.97,NE,45,2.0,4.0,98,0.00,,,0.00,95.00,VWS V14.01,2013-08-29 13:48:00,
2013-08-29 08:53:00,70.8,70.2,29.98,NE,46,0.0,3.0,98,0.00,,,0.00,90.00,VWS V14.01,2013-08-29 13:53:00,
2013-08-29 08:58:00,70.8,70.2,29.98,ENE,67,3.0,5.0,98,0.00,,,0.00,102.00,VWS V14.01,2013-08-29 13:58:00,
2013-08-29 09:03:00,70.8,70.2,29.98,ENE,74,5.0,10.0,98,0.00,,,0.00,120.00,VWS V14.01,2013-08-29 14:03:00,
2013-08-29 09:08:00,70.6,70.0,29.98,ENE,78,4.0,4.0,98,0.00,,,0.00,120.00,VWS V14.01,2013-08-29 14:08:00,
2013-08-29 09:13:00,70.6,70.0,29.98,NNE,24,2.0,6.0,98,0.00,,,0.00,123.00,VWS V14.01,2013-08-29 14:13:00,
2013-08-29 09:18:00,70.6,70.0,29.98,NE,51,4.0,5.0,98,0.00,,,0.00,134.00,VWS V14.01,2013-08-29 14:18:00,
2013-08-29 09:23:00,70.8,70.2,29.98,NE,46,4.0,4.0,98,0.00,,,0.00,148.00,VWS V14.01,2013-08-29 14:23:00,
2013-08-29 09:28:00,70.6,69.7,29.98,ENE,71,5.0,5.0,97,0.00,,,0.00,156.00,VWS V14.01,2013-08-29 14:28:00,
2013-08-29 09:33:00,70.8,70.2,29.98,East,95,4.0,6.0,98,0.00,,,0.00,146.00,VWS V14.01,2013-08-29 14:33:00,
2013-08-29 09:38:00,70.8,69.9,29.98,East,93,5.0,6.0,97,0.00,,,0.00,142.00,VWS V14.01,2013-08-29 14:38:00,
2013-08-29 09:43:00,70.8,69.9,29.98,North,10,7.0,7.0,97,0.00,,,0.00,188.00,VWS V14.01,2013-08-29 14:43:00,
2013-08-29 09:48:00,70.8,69.9,29.98,NE,51,2.0,6.0,97,0.00,,,0.00,179.00,VWS V14.01,2013-08-29 14:48:00,
2013-08-29 09:53:00,70.9,70.0,29.99,NE,49,3.0,6.0,97,0.00,,,0.00,174.00,VWS V14.01,2013-08-29 14:53:00,
2013-08-29 09:58:00,71.1,70.2,29.99,NE,51,2.0,4.0,97,0.00,,,0.00,169.00,VWS V14.01,2013-08-29 14:58:00,
2013-08-29 10:03:00,71.3,70.4,29.99,East,85,2.0,5.0,97,0.00,,,0.00,160.00,VWS V14.01,2013-08-29 15:03:00,
2013-08-29 10:08:00,71.5,70.6,29.99,East,84,2.0,3.0,97,0.00,,,0.00,169.00,VWS V14.01,2013-08-29 15:08:00,
2013-08-29 10:13:00,71.6,70.7,29.99,ENE,58,5.0,6.0,97,0.00,,,0.00,171.00,VWS V14.01,2013-08-29 15:13:00,
2013-08-29 10:18:00,71.6,70.7,29.99,ENE,73,2.0,4.0,97,0.00,,,0.00,174.00,VWS V14.01,2013-08-29 15:18:00,
2013-08-29 10:23:00,71.8,70.6,29.99,NE,40,3.0,4.0,96,0.00,,,0.00,200.00,VWS V14.01,2013-08-29 15:23:00,
2013-08-29 10:28:00,71.8,70.6,29.99,ENE,63,2.0,5.0,96,0.00,,,0.00,230.00,VWS V14.01,2013-08-29 15:28:00,
2013-08-29 10:33:00,72.1,70.9,29.99,ENE,63,1.0,4.0,96,0.00,,,0.00,211.00,VWS V14.01,2013-08-29 15:33:00,
2013-08-29 10:38:00,72.3,71.1,29.99,ENE,63,0.0,4.0,96,0.00,,,0.00,192.00,VWS V14.01,2013-08-29 15:38:00,
2013-08-29 10:43:00,72.3,71.1,29.99,NNE,30,4.0,7.0,96,0.00,,,0.00,185.00,VWS V14.01,2013-08-29 15:43:00,
2013-08-29 10:48:00,72.3,70.8,29.99,East,83,3.0,5.0,95,0.00,,,0.00,221.00,VWS V14.01,2013-08-29 15:48:00,
2013-08-29 10:53:00,72.5,71.0,29.99,ENE,67,0.0,1.0,95,0.00,,,0.00,288.00,VWS V14.01,2013-08-29 15:53:00,
2013-08-29 10:58:00,72.7,71.2,29.99,East,81,1.0,4.0,95,0.00,,,0.00,253.00,VWS V14.01,2013-08-29 15:58:00,
2013-08-29 11:03:00,72.8,71.0,29.99,East,81,3.0,4.0,94,0.00,,,0.00,246.00,VWS V14.01,2013-08-29 16:03:00,
2013-08-29 11:08:00,73.2,71.1,30.00,ENE,57,4.0,6.0,93,0.00,,,0.00,262.00,VWS V14.01,2013-08-29 16:08:00,
2013-08-29 11:13:00,73.3,71.2,30.00,ENE,58,4.0,4.0,93,0.00,,,0.00,299.00,VWS V14.01,2013-08-29 16:13:00,
2013-08-29 11:18:00,73.5,71.0,29.99,NE,38,4.0,6.0,92,0.00,,,0.00,297.00,VWS V14.01,2013-08-29 16:18:00,
2013-08-29 11:23:00,73.7,71.2,29.99,ENE,61,3.0,4.0,92,0.00,,,0.00,278.00,VWS V14.01,2013-08-29 16:23:00,
2013-08-29 11:28:00,73.9,71.1,29.99,NE,46,1.0,3.0,91,0.00,,,0.00,320.00,VWS V14.01,2013-08-29 16:28:00,
2013-08-29 11:33:00,74.2,71.4,29.99,East,92,4.0,5.0,91,0.00,,,0.00,380.00,VWS V14.01,2013-08-29 16:33:00,
2013-08-29 11:38:00,74.2,70.8,29.99,NE,55,3.0,6.0,89,0.00,,,0.00,387.00,VWS V14.01,2013-08-29 16:38:00,
2013-08-29 11:43:00,74.6,71.2,29.99,NE,38,3.0,4.0,89,0.00,,,0.00,381.00,VWS V14.01,2013-08-29 16:43:00,
2013-08-29 11:48:00,74.6,70.8,29.99,ENE,72,2.0,4.0,88,0.00,,,0.00,401.00,VWS V14.01,2013-08-29 16:48:00,
2013-08-29 11:53:00,75.1,71.3,29.99,ESE,114,2.0,11.0,88,0.00,,,0.00,441.00,VWS V14.01,2013-08-29 16:53:00,
2013-08-29 11:58:00,75.4,70.9,29.99,East,95,6.0,6.0,86,0.00,,,0.00,376.00,VWS V14.01,2013-08-29 16:58:00,
2013-08-29 12:03:00,76.0,71.5,29.99,NNE,29,5.0,6.0,86,0.00,,OVC008,0.00,396.00,VWS V14.01,2013-08-29 17:03:00,
2013-08-29 12:08:00,76.1,70.9,29.99,ENE,62,3.0,5.0,84,0.00,,OVC008,0.00,429.00,VWS V14.01,2013-08-29 17:08:00,
2013-08-29 12:13:00,76.5,71.3,29.99,ENE,61,5.0,7.0,84,0.00,,OVC008,0.00,369.00,VWS V14.01,2013-08-29 17:13:00,
2013-08-29 12:18:00,76.5,71.3,29.99,NNE,22,7.0,7.0,84,0.00,,OVC008,0.00,338.00,VWS V14.01,2013-08-29 17:18:00,
2013-08-29 12:23:00,76.7,71.5,29.99,NNE,31,3.0,4.0,84,0.00,,OVC008,0.00,341.00,VWS V14.01,2013-08-29 17:23:00,
2013-08-29 12:28:00,76.8,71.2,29.98,NNE,30,4.0,6.0,83,0.00,,OVC008,0.00,374.00,VWS V14.01,2013-08-29 17:28:00,
2013-08-29 12:33:00,77.0,71.4,29.98,NNE,26,4.0,4.0,83,0.00,,OVC008,0.00,455.00,VWS V14.01,2013-08-29 17:33:00,
2013-08-29 12:38:00,77.2,71.3,29.98,NNE,17,4.0,8.0,82,0.00,,OVC008,0.00,427.00,VWS V14.01,2013-08-29 17:38:00,
2013-08-29 12:43:00,77.2,71.3,29.98,NNE,32,3.0,3.0,82,0.00,,OVC008,0.00,543.00,VWS V14.01,2013-08-29 17:43:00,
2013-08-29 12:48:00,77.4,71.1,29.98,North,11,5.0,8.0,81,0.00,,OVC008,0.00,436.00,VWS V14.01,2013-08-29 17:48:00,
2013-08-29 12:53:00,77.2,70.9,29.98,ENE,74,3.0,5.0,81,0.00,,OVC008,0.00,462.00,VWS V14.01,2013-08-29 17:53:00,
2013-08-29 12:58:00,77.4,71.1,29.98,NNE,26,5.0,7.0,81,0.00,,OVC008,0.00,390.00,VWS V14.01,2013-08-29 17:58:00,
2013-08-29 13:04:00,77.4,70.8,29.98,NE,38,3.0,8.0,80,0.00,,OVC012,0.00,615.00,VWS V14.01,2013-08-29 18:04:00,
2013-08-29 13:09:00,77.6,71.3,29.98,East,86,6.0,6.0,81,0.00,,OVC012,0.00,396.00,VWS V14.01,2013-08-29 18:09:00,
2013-08-29 13:14:00,77.6,70.6,29.98,NE,53,4.0,8.0,79,0.00,,OVC012,0.00,424.00,VWS V14.01,2013-08-29 18:14:00,
2013-08-29 13:19:00,77.7,70.7,29.98,NNE,16,4.0,7.0,79,0.00,,OVC012,0.00,499.00,VWS V14.01,2013-08-29 18:19:00,
2013-08-29 13:24:00,77.9,70.9,29.98,NNE,17,1.0,2.0,79,0.00,,OVC012,0.00,1051.00,VWS V14.01,2013-08-29 18:24:00,
2013-08-29 13:29:00,78.6,70.8,29.98,North,351,8.0,8.0,77,0.00,,OVC012,0.00,469.00,VWS V14.01,2013-08-29 18:29:00,
2013-08-29 13:34:00,78.6,70.8,29.97,North,360,0.0,5.0,77,0.00,,OVC012,0.00,446.00,VWS V14.01,2013-08-29 18:34:00,
2013-08-29 13:39:00,78.8,71.0,29.97,NNE,28,8.0,8.0,77,0.00,,OVC012,0.00,410.00,VWS V14.01,2013-08-29 18:39:00,
2013-08-29 13:44:00,78.8,71.0,29.98,NNE,30,0.0,1.0,77,0.00,,OVC012,0.00,338.00,VWS V14.01,2013-08-29 18:44:00,
2013-08-29 13:49:00,79.2,70.6,29.98,NNE,32,3.0,5.0,75,0.00,,OVC012,0.00,1053.00,VWS V14.01,2013-08-29 18:49:00,
2013-08-29 13:54:00,79.6,70.6,29.98,NE,37,0.0,4.0,74,0.00,,OVC012,0.00,1053.00,VWS V14.01,2013-08-29 18:54:00,
2013-08-29 13:59:00,79.9,70.9,29.97,NNE,28,4.0,4.0,74,0.00,,OVC012,0.00,998.00,VWS V14.01,2013-08-29 18:59:00,
2013-08-29 14:04:00,80.3,70.9,29.97,NE,38,1.0,5.0,73,0.00,,BKN,0.00,898.00,VWS V14.01,2013-08-29 19:04:00,
2013-08-29 14:09:00,80.5,70.7,29.97,ENE,74,4.0,8.0,72,0.00,,BKN,0.00,904.00,VWS V14.01,2013-08-29 19:09:00,
2013-08-29 14:15:00,80.5,69.8,29.96,NE,51,3.0,5.0,70,0.00,,BKN,0.00,851.00,VWS V14.01,2013-08-29 19:15:00,
2013-08-29 14:20:00,80.7,70.0,29.96,NE,50,4.0,5.0,70,0.00,,BKN,0.00,826.00,VWS V14.01,2013-08-29 19:20:00,
2013-08-29 14:25:00,81.2,70.5,29.96,NE,51,5.0,5.0,70,0.00,,BKN,0.00,867.00,VWS V14.01,2013-08-29 19:25:00,
2013-08-29 14:30:00,81.8,69.8,29.96,NE,53,3.0,3.0,67,0.00,,BKN,0.00,847.00,VWS V14.01,2013-08-29 19:30:00,
2013-08-29 14:35:00,82.6,70.1,29.96,North,11,3.0,8.0,66,0.00,,BKN,0.00,819.00,VWS V14.01,2013-08-29 19:35:00,
2013-08-29 14:40:00,82.6,70.5,29.95,NNE,22,4.0,6.0,67,0.00,,BKN,0.00,454.00,VWS V14.01,2013-08-29 19:40:00,
2013-08-29 14:46:00,82.2,69.3,29.95,ESE,107,0.0,6.0,65,0.00,,BKN,0.00,796.00,VWS V14.01,2013-08-29 19:46:00,
2013-08-29 14:52:00,82.2,70.6,29.95,NE,53,1.0,10.0,68,0.00,,BKN,0.00,788.00,VWS V14.01,2013-08-29 19:52:00,
2013-08-29 14:57:00,82.2,71.0,29.95,NE,53,0.0,0.0,69,0.00,,BKN,0.00,773.00,VWS V14.01,2013-08-29 19:57:00,
2013-08-29 15:02:00,82.6,70.1,29.94,NE,39,5.0,8.0,66,0.00,,BKN019,0.00,761.00,VWS V14.01,2013-08-29 20:02:00,
2013-08-29 15:08:00,82.8,69.8,29.94,ESE,113,6.0,6.0,65,0.00,,BKN019,0.00,752.00,VWS V14.01,2013-08-29 20:08:00,
2013-08-29 15:13:00,82.8,69.4,29.94,East,98,0.0,2.0,64,0.00,,BKN019,0.00,744.00,VWS V14.01,2013-08-29 20:13:00,
2013-08-29 15:19:00,83.2,69.8,29.94,NE,55,3.0,8.0,64,0.00,,BKN019,0.00,728.00,VWS V14.01,2013-08-29 20:19:00,
2013-08-29 15:24:00,83.2,67.9,29.94,East,99,4.0,7.0,60,0.00,,BKN019,0.00,729.00,VWS V14.01,2013-08-29 20:24:00,
2013-08-29 15:29:00,84.0,70.1,29.94,East,101,1.0,1.0,63,0.00,,BKN019,0.00,719.00,VWS V14.01,2013-08-29 20:29:00,
2013-08-29 15:34:00,84.1,69.7,29.93,ENE,59,2.0,6.0,62,0.00,,BKN019,0.00,694.00,VWS V14.01,2013-08-29 20:34:00,
2013-08-29 15:39:00,84.5,69.6,29.93,North,360,3.0,7.0,61,0.00,,BKN019,0.00,694.00,VWS V14.01,2013-08-29 20:39:00,
2013-08-29 15:44:00,84.3,69.4,29.93,ENE,78,2.0,5.0,61,0.00,,BKN019,0.00,707.00,VWS V14.01,2013-08-29 20:44:00,
2013-08-29 15:49:00,84.1,69.2,29.94,NE,51,5.0,6.0,61,0.00,,BKN019,0.00,671.00,VWS V14.01,2013-08-29 20:49:00,
2013-08-29 15:54:00,84.1,69.7,29.93,NE,46,2.0,4.0,62,0.00,,BKN019,0.00,645.00,VWS V14.01,2013-08-29 20:54:00,
2013-08-29 15:59:00,84.1,70.2,29.93,NE,46,3.0,4.0,63,0.00,,BKN019,0.00,624.00,VWS V14.01,2013-08-29 20:59:00,
2013-08-29 16:04:00,84.1,70.2,29.93,NE,43,4.0,7.0,63,0.00,,SCT025,0.00,626.00,VWS V14.01,2013-08-29 21:04:00,
2013-08-29 16:09:00,84.1,69.7,29.93,NE,43,5.0,5.0,62,0.00,,SCT025,0.00,605.00,VWS V14.01,2013-08-29 21:09:00,
2013-08-29 16:14:00,84.1,69.7,29.93,NNE,32,3.0,6.0,62,0.00,,SCT025,0.00,589.00,VWS V14.01,2013-08-29 21:14:00,
2013-08-29 16:20:00,84.1,69.7,29.93,NNE,33,3.0,6.0,62,0.00,,SCT025,0.00,531.00,VWS V14.01,2013-08-29 21:20:00,
2013-08-29 16:25:00,83.8,69.4,29.93,North,360,2.0,3.0,62,0.00,,SCT025,0.00,543.00,VWS V14.01,2013-08-29 21:25:00,
2013-08-29 16:30:00,84.1,69.2,29.93,NNE,32,0.0,4.0,61,0.00,,SCT025,0.00,534.00,VWS V14.01,2013-08-29 21:30:00,
2013-08-29 16:35:00,84.5,69.1,29.93,NE,41,6.0,6.0,60,0.00,,SCT025,0.00,515.00,VWS V14.01,2013-08-29 21:35:00,
2013-08-29 16:40:00,84.3,69.4,29.93,NE,48,3.0,5.0,61,0.00,,SCT025,0.00,508.00,VWS V14.01,2013-08-29 21:40:00,
2013-08-29 16:45:00,84.3,68.9,29.93,NNE,26,0.0,3.0,60,0.00,,SCT025,0.00,485.00,VWS V14.01,2013-08-29 21:45:00,
2013-08-29 16:50:00,84.5,69.1,29.93,East,80,2.0,3.0,60,0.00,,SCT025,0.00,464.00,VWS V14.01,2013-08-29 21:50:00,
2013-08-29 16:55:00,84.5,68.6,29.92,NNE,26,5.0,5.0,59,0.00,,SCT025,0.00,455.00,VWS V14.01,2013-08-29 21:55:00,
2013-08-29 17:00:00,84.5,69.1,29.92,NE,45,5.0,5.0,60,0.00,,FEW030,0.00,438.00,VWS V14.01,2013-08-29 22:00:00,
2013-08-29 17:05:00,84.7,69.3,29.92,NE,34,4.0,4.0,60,0.00,,FEW030,0.00,420.00,VWS V14.01,2013-08-29 22:05:00,
2013-08-29 17:10:00,84.9,69.0,29.92,NE,49,4.0,6.0,59,0.00,,FEW030,0.00,410.00,VWS V14.01,2013-08-29 22:10:00,
2013-08-29 17:15:00,84.3,68.4,29.92,ENE,69,4.0,5.0,59,0.00,,FEW030,0.00,345.00,VWS V14.01,2013-08-29 22:15:00,
2013-08-29 17:20:00,84.3,68.9,29.92,NE,38,5.0,5.0,60,0.00,,FEW030,0.00,371.00,VWS V14.01,2013-08-29 22:20:00,
2013-08-29 17:25:00,84.1,69.2,29.92,ENE,68,4.0,5.0,61,0.00,,FEW030,0.00,352.00,VWS V14.01,2013-08-29 22:25:00,
2013-08-29 17:31:00,84.1,69.2,29.92,NNE,24,4.0,6.0,61,0.00,,FEW030,0.00,336.00,VWS V14.01,2013-08-29 22:31:00,
2013-08-29 17:36:00,84.1,68.7,29.92,NNE,26,2.0,4.0,60,0.00,,FEW030,0.00,315.00,VWS V14.01,2013-08-29 22:36:00,
2013-08-29 17:42:00,84.0,68.6,29.91,NE,34,0.0,3.0,60,0.00,,FEW030,0.00,295.00,VWS V14.01,2013-08-29 22:42:00,
2013-08-29 17:47:00,84.1,68.7,29.91,NE,34,3.0,3.0,60,0.00,,FEW030,0.00,278.00,VWS V14.01,2013-08-29 22:47:00,
2013-08-29 17:52:00,84.1,68.7,29.91,NNE,29,3.0,4.0,60,0.00,,FEW030,0.00,257.00,VWS V14.01,2013-08-29 22:52:00,
2013-08-29 17:57:00,84.0,68.6,29.91,NNE,29,3.0,6.0,60,0.00,,FEW030,0.00,246.00,VWS V14.01,2013-08-29 22:57:00,
2013-08-29 18:02:00,84.0,69.1,29.91,NNE,28,1.0,6.0,61,0.00,,CLR,0.00,229.00,VWS V14.01,2013-08-29 23:02:00,
2013-08-29 18:07:00,83.8,68.0,29.91,NNE,31,1.0,5.0,59,0.00,,CLR,0.00,209.00,VWS V14.01,2013-08-29 23:07:00,
2013-08-29 18:13:00,83.8,68.4,29.91,NNE,26,1.0,1.0,60,0.00,,CLR,0.00,192.00,VWS V14.01,2013-08-29 23:13:00,
2013-08-29 18:18:00,83.6,68.7,29.91,NE,36,2.0,3.0,61,0.00,,CLR,0.00,46.00,VWS V14.01,2013-08-29 23:18:00,
2013-08-29 18:23:00,83.4,68.6,29.91,NE,36,0.0,1.0,61,0.00,,CLR,0.00,42.00,VWS V14.01,2013-08-29 23:23:00,
2013-08-29 18:29:00,83.4,68.6,29.91,NE,36,1.0,3.0,61,0.00,,CLR,0.00,40.00,VWS V14.01,2013-08-29 23:29:00,
2013-08-29 18:35:00,83.2,68.4,29.91,NE,36,3.0,3.0,61,0.00,,CLR,0.00,37.00,VWS V14.01,2013-08-29 23:35:00,
2013-08-29 18:40:00,83.2,68.4,29.91,NE,36,0.0,2.0,61,0.00,,CLR,0.00,35.00,VWS V14.01,2013-08-29 23:40:00,
2013-08-29 18:45:00,83.0,68.7,29.91,NE,36,0.0,2.0,62,0.00,,CLR,0.00,33.00,VWS V14.01,2013-08-29 23:45:00,
2013-08-29 18:50:00,83.0,68.7,29.92,NE,36,0.0,1.0,62,0.00,,CLR,0.00,32.00,VWS V14.01,2013-08-29 23:50:00,
2013-08-29 18:56:00,82.6,68.3,29.91,NNE,33,0.0,4.0,62,0.00,,CLR,0.00,26.00,VWS V14.01,2013-08-29 23:56:00,
2013-08-29 19:01:00,82.6,67.8,29.92,NNE,33,2.0,3.0,61,0.00,,CLR,0.00,25.00,VWS V14.01,2013-08-30 00:01:00,
2013-08-29 19:06:00,82.6,68.3,29.92,NE,34,1.0,2.0,62,0.00,,CLR,0.00,21.00,VWS V14.01,2013-08-30 00:06:00,
2013-08-29 19:11:00,82.4,68.1,29.92,NNE,33,0.0,1.0,62,0.00,,CLR,0.00,18.00,VWS V14.01,2013-08-30 00:11:00,
2013-08-29 19:16:00,82.2,68.8,29.92,SE,142,4.0,5.0,64,0.00,,CLR,0.00,14.00,VWS V14.01,2013-08-30 00:16:00,
2013-08-29 19:21:00,81.8,68.9,29.92,SE,144,2.0,7.0,65,0.00,,CLR,0.00,11.00,VWS V14.01,2013-08-30 00:21:00,
2013-08-29 19:26:00,81.4,68.5,29.91,SE,144,5.0,5.0,65,0.00,,CLR,0.00,7.00,VWS V14.01,2013-08-30 00:26:00,
2013-08-29 19:31:00,81.2,68.8,29.92,SE,143,5.0,5.0,66,0.00,,CLR,0.00,0.00,VWS V14.01,2013-08-30 00:31:00,
2013-08-29 19:37:00,81.2,68.8,29.92,SE,142,4.0,5.0,66,0.00,,CLR,0.00,0.00,VWS V14.01,2013-08-30 00:37:00,
2013-08-29 19:42:00,80.9,68.5,29.92,SE,142,2.0,4.0,66,0.00,,CLR,0.00,0.00,VWS V14.01,2013-08-30 00:42:00,
2013-08-29 19:47:00,80.7,68.3,29.92,SE,143,2.0,4.0,66,0.00,,CLR,0.00,0.00,VWS V14.01,2013-08-30 00:47:00,
2013-08-29 19:52:00,80.3,68.3,29.92,SE,143,2.0,6.0,67,0.00,,CLR,0.00,0.00,VWS V14.01,2013-08-30 00:52:00,
2013-08-29 19:57:00,80.1,68.2,29.92,SE,143,1.0,4.0,67,0.00,,CLR,0.00,0.00,VWS V14.01,2013-08-30 00:57:00,
2013-08-29 20:02:00,80.1,69.4,29.92,SE,143,1.0,2.0,70,0.00,,CLR,0.00,0.00,VWS V14.01,2013-08-30 01:02:00,
2013-08-29 20:07:00,79.9,68.4,29.92,SE,143,0.0,1.0,68,0.00,,CLR,0.00,0.00,VWS V14.01,2013-08-30 01:07:00,
2013-08-29 20:13:00,79.9,68.0,29.93,SE,143,0.0,2.0,67,0.00,,CLR,0.00,0.00,VWS V14.01,2013-08-30 01:13:00,
2013-08-29 20:18:00,79.8,67.9,29.93,SE,143,2.0,5.0,67,0.00,,CLR,0.00,0.00,VWS V14.01,2013-08-30 01:18:00,
2013-08-29 20:23:00,79.6,68.1,29.93,SE,143,2.0,4.0,68,0.00,,CLR,0.00,0.00,VWS V14.01,2013-08-30 01:23:00,
2013-08-29 20:29:00,79.6,68.1,29.93,SE,142,2.0,2.0,68,0.00,,CLR,0.00,0.00,VWS V14.01,2013-08-30 01:29:00,
2013-08-29 20:35:00,79.6,68.1,29.93,SE,142,0.0,2.0,68,0.00,,CLR,0.00,0.00,VWS V14.01,2013-08-30 01:35:00,
2013-08-29 20:40:00,79.4,67.9,29.93,SE,142,0.0,1.0,68,0.00,,CLR,0.00,0.00,VWS V14.01,2013-08-30 01:40:00,
2013-08-29 20:46:00,79.2,68.2,29.93,SE,142,0.0,0.0,69,0.00,,CLR,0.00,0.00,VWS V14.01,2013-08-30 01:46:00,
2013-08-29 20:51:00,79.0,68.0,29.93,SE,142,0.0,0.0,69,0.00,,CLR,0.00,0.00,VWS V14.01,2013-08-30 01:51:00,
2013-08-29 20:57:00,78.6,68.0,29.93,SE,142,0.0,0.0,70,0.00,,CLR,0.00,0.00,VWS V14.01,2013-08-30 01:57:00,
2013-08-29 21:02:00,78.3,67.7,29.93,SE,142,0.0,0.0,70,0.00,,CLR,0.00,0.00,VWS V14.01,2013-08-30 02:02:00,
2013-08-29 21:07:00,78.1,68.3,29.93,SE,142,0.0,0.0,72,0.00,,CLR,0.00,0.00,VWS V14.01,2013-08-30 02:07:00,
2013-08-29 21:12:00,77.7,68.0,29.93,SE,142,0.0,1.0,72,0.00,,CLR,0.00,0.00,VWS V14.01,2013-08-30 02:12:00,
2013-08-29 21:18:00,77.7,68.0,29.93,SE,143,0.0,1.0,72,0.00,,CLR,0.00,0.00,VWS V14.01,2013-08-30 02:18:00,
2013-08-29 21:23:00,77.7,68.0,29.93,SE,143,0.0,0.0,72,0.00,,CLR,0.00,0.00,VWS V14.01,2013-08-30 02:23:00,
2013-08-29 21:28:00,77.6,67.9,29.93,SE,143,0.0,0.0,72,0.00,,CLR,0.00,0.00,VWS V14.01,2013-08-30 02:28:00,
2013-08-29 21:33:00,77.4,68.1,29.93,SE,143,0.0,0.0,73,0.00,,CLR,0.00,0.00,VWS V14.01,2013-08-30 02:33:00,
2013-08-29 21:39:00,77.0,67.7,29.93,SE,143,0.0,0.0,73,0.00,,CLR,0.00,0.00,VWS V14.01,2013-08-30 02:39:00,
2013-08-29 21:44:00,76.8,67.9,29.93,SE,143,0.0,0.0,74,0.00,,CLR,0.00,0.00,VWS V14.01,2013-08-30 02:44:00,
2013-08-29 21:49:00,76.5,68.0,29.92,SE,143,0.0,0.0,75,0.00,,CLR,0.00,0.00,VWS V14.01,2013-08-30 02:49:00,
2013-08-29 21:54:00,76.1,68.0,29.92,SE,143,0.0,0.0,76,0.00,,CLR,0.00,0.00,VWS V14.01,2013-08-30 02:54:00,
2013-08-29 21:59:00,75.8,68.1,29.92,SE,143,0.0,0.0,77,0.00,,CLR,0.00,0.00,VWS V14.01,2013-08-30 02:59:00,
2013-08-29 22:04:00,75.6,68.3,29.92,SE,143,0.0,0.0,78,0.00,,CLR,0.00,0.00,VWS V14.01,2013-08-30 03:04:00,
2013-08-29 22:09:00,75.3,68.3,29.92,SE,143,0.0,0.0,79,0.00,,CLR,0.00,0.00,VWS V14.01,2013-08-30 03:09:00,
2013-08-29 22:14:00,75.1,68.2,29.92,SE,143,0.0,0.0,79,0.00,,CLR,0.00,0.00,VWS V14.01,2013-08-30 03:14:00,
2013-08-29 22:20:00,74.7,68.1,29.92,SE,143,0.0,0.0,80,0.00,,CLR,0.00,0.00,VWS V14.01,2013-08-30 03:20:00,
2013-08-29 22:26:00,74.6,68.4,29.92,SE,143,0.0,0.0,81,0.00,,CLR,0.00,0.00,VWS V14.01,2013-08-30 03:26:00,
2013-08-29 22:32:00,74.4,68.2,29.92,SE,143,0.0,0.0,81,0.00,,CLR,0.00,0.00,VWS V14.01,2013-08-30 03:32:00,
2013-08-29 22:37:00,74.2,68.0,29.92,SE,143,0.0,0.0,81,0.00,,CLR,0.00,0.00,VWS V14.01,2013-08-30 03:37:00,
2013-08-29 22:42:00,74.2,68.4,29.92,SE,143,0.0,0.0,82,0.00,,CLR,0.00,0.00,VWS V14.01,2013-08-30 03:42:00,
2013-08-29 22:48:00,73.9,68.1,29.92,SE,143,0.0,0.0,82,0.00,,CLR,0.00,0.00,VWS V14.01,2013-08-30 03:48:00,
2013-08-29 22:53:00,73.7,68.2,29.91,SE,143,0.0,0.0,83,0.00,,CLR,0.00,0.00,VWS V14.01,2013-08-30 03:53:00,
2013-08-29 22:58:00,73.7,68.2,29.91,SE,143,0.0,0.0,83,0.00,,CLR,0.00,0.00,VWS V14.01,2013-08-30 03:58:00,
2013-08-29 23:01:00,73.5,68.0,29.91,SE,143,0.0,0.0,83,0.00,,CLR,0.00,0.00,VWS V14.01,2013-08-30 04:01:00,
2013-08-29 23:02:00,73.5,68.0,29.91,SE,143,0.0,0.0,83,0.00,,CLR,0.00,0.00,VWS V14.01,2013-08-30 04:02:00,
2013-08-29 23:07:00,73.5,68.4,29.91,SE,143,0.0,0.0,84,0.00,,CLR,0.00,0.00,VWS V14.01,2013-08-30 04:07:00,
2013-08-29 23:12:00,73.5,68.4,29.91,SE,143,0.0,0.0,84,0.00,,CLR,0.00,0.00,VWS V14.01,2013-08-30 04:12:00,
2013-08-29 23:14:00,73.5,68.4,29.91,SE,143,0.0,0.0,84,0.00,,CLR,0.00,0.00,VWS V14.01,2013-08-30 04:14:00,
2013-08-29 23:18:00,73.5,68.4,29.91,SE,143,0.0,0.0,84,0.00,,CLR,0.00,0.00,VWS V14.01,2013-08-30 04:18:00,
2013-08-29 23:21:00,73.5,68.4,29.91,SE,143,0.0,0.0,84,0.00,,CLR,0.00,0.00,VWS V14.01,2013-08-30 04:21:00,
2013-08-29 23:26:00,73.3,68.2,29.91,SE,143,0.0,0.0,84,0.00,,CLR,0.00,0.00,VWS V14.01,2013-08-30 04:26:00,
2013-08-29 23:31:00,73.3,68.2,29.91,SE,143,0.0,0.0,84,0.00,,CLR,0.00,0.00,VWS V14.01,2013-08-30 04:31:00,
2013-08-29 23:37:00,73.2,68.1,29.91,SE,143,0.0,0.0,84,0.00,,CLR,0.00,0.00,VWS V14.01,2013-08-30 04:37:00,
2013-08-29 23:43:00,73.2,68.4,29.91,SE,143,0.0,0.0,85,0.00,,CLR,0.00,0.00,VWS V14.01,2013-08-30 04:43:00,
2013-08-29 23:48:00,73.0,68.2,29.91,SE,143,0.0,0.0,85,0.00,,CLR,0.00,0.00,VWS V14.01,2013-08-30 04:48:00,
2013-08-29 23:54:00,73.0,68.2,29.91,SE,143,0.0,0.0,85,0.00,,CLR,0.00,0.00,VWS V14.01,2013-08-30 04:54:00,
2013-08-29 23:59:00,73.0,68.2,29.91,SE,143,0.0,0.0,85,0.00,,CLR,0.00,0.00,VWS V14.01,2013-08-30 04:59:00,